UAL1432 KFLL-KEWR

Flight info

Callsign UAL1432
Flight time N/A
Altitude 35000
Route FEALX2 ETECK GRUBR Y299 SEELO GARIC Q129 AARNN QUART PHLBO4
Aircraft B738/M-SDE2E3FGHIRWXY/LB1

Departure

Time 2026-05-04 18:24
Airport Fort Lauderdale Hollywood International Airport (KFLL)

Arrival

Time N/A
Airport Newark Liberty International Airport (KEWR)
Time Latitude Longitude Altitude Speed Heading
2026-05-04 17:58 26.07368 -80.14023 17 ft 0 kts 268°
2026-05-04 18:11 26.07368 -80.14007 17 ft 2 kts 272°
2026-05-04 18:11 26.07366 -80.13990 18 ft 2 kts 283°
2026-05-04 18:11 26.07361 -80.13972 20 ft 2 kts 304°
2026-05-04 18:12 26.07349 -80.13960 17 ft 2 kts 346°
2026-05-04 18:12 26.07339 -80.13959 20 ft 0 kts
2026-05-04 18:17 26.07360 -80.13958 17 ft 6 kts
2026-05-04 18:17 26.07409 -80.13958 15 ft 8 kts
2026-05-04 18:17 26.07417 -80.13958 15 ft 0 kts
2026-05-04 18:18 26.07471 -80.13975 14 ft 14 kts 317°
2026-05-04 18:19 26.07487 -80.14345 17 ft 33 kts 271°
2026-05-04 18:19 26.07489 -80.14590 19 ft 31 kts 270°
2026-05-04 18:19 26.07488 -80.14823 15 ft 29 kts 269°
2026-05-04 18:20 26.07490 -80.15044 14 ft 28 kts 269°
2026-05-04 18:20 26.07491 -80.15250 11 ft 26 kts 270°
2026-05-04 18:20 26.07492 -80.15446 11 ft 25 kts 271°
2026-05-04 18:20 26.07493 -80.15630 13 ft 23 kts 270°
2026-05-04 18:21 26.07494 -80.15821 14 ft 28 kts 270°
2026-05-04 18:21 26.07496 -80.16060 18 ft 33 kts 270°
2026-05-04 18:21 26.07497 -80.16341 17 ft 39 kts 270°
2026-05-04 18:21 26.07520 -80.16555 18 ft 13 kts 331°
2026-05-04 18:22 26.07591 -80.16562 16 ft 0 kts 359°
2026-05-04 18:23 26.07595 -80.16562 16 ft 3 kts 359°
2026-05-04 18:23 26.07656 -80.16560 15 ft 14 kts
2026-05-04 18:24 26.07696 -80.16441 18 ft 28 kts 91°
2026-05-04 18:24 26.07692 -80.15912 16 ft 108 kts 91°
2026-05-04 18:24 26.07686 -80.14814 102 ft 167 kts 88°
2026-05-04 18:24 26.07717 -80.13538 1080 ft 165 kts 81°
2026-05-04 18:25 26.07893 -80.12272 2030 ft 170 kts 67°
2026-05-04 18:25 26.08709 -80.11181 2512 ft 201 kts 25°
2026-05-04 18:25 26.10144 -80.10833 3126 ft 217 kts 10°
2026-05-04 18:25 26.11661 -80.10486 3765 ft 227 kts 11°
2026-05-04 18:26 26.13225 -80.10073 4335 ft 233 kts 14°
2026-05-04 18:26 26.14800 -80.09587 4817 ft 240 kts 15°
2026-05-04 18:26 26.16372 -80.09049 5136 ft 253 kts 17°
2026-05-04 18:26 26.18085 -80.08412 5589 ft 266 kts 18°
2026-05-04 18:27 26.19837 -80.07719 6226 ft 273 kts 18°
2026-05-04 18:27 26.21662 -80.06969 6876 ft 280 kts 17°
2026-05-04 18:27 26.23477 -80.06196 7491 ft 286 kts 18°
2026-05-04 18:27 26.25346 -80.05386 8162 ft 291 kts 20°
2026-05-04 18:28 26.26986 -80.04026 8803 ft 304 kts 51°
2026-05-04 18:28 26.27820 -80.01854 9445 ft 312 kts 83°
2026-05-04 18:28 26.27666 -79.99647 10019 ft 315 kts 107°
2026-05-04 18:28 26.27069 -79.97350 10367 ft 330 kts 105°
2026-05-04 18:29 26.26626 -79.94748 10516 ft 353 kts 97°
2026-05-04 18:29 26.26477 -79.91972 10674 ft 373 kts 90°
2026-05-04 18:29 26.26588 -79.89040 11057 ft 384 kts 85°
2026-05-04 18:29 26.26866 -79.86062 11608 ft 388 kts 83°
2026-05-04 18:30 26.27643 -79.80046 12736 ft 397 kts 81°
2026-05-04 18:30 26.28061 -79.76985 13277 ft 402 kts 81°
2026-05-04 18:30 26.28475 -79.73893 13806 ft 407 kts 81°
2026-05-04 18:31 26.28967 -79.70773 14261 ft 411 kts 74°
2026-05-04 18:31 26.29999 -79.67801 14741 ft 412 kts 60°
2026-05-04 18:31 26.31556 -79.65125 15257 ft 412 kts 47°
2026-05-04 18:31 26.33506 -79.62790 15738 ft 413 kts 42°
2026-05-04 18:32 26.35510 -79.60541 16178 ft 417 kts 41°
2026-05-04 18:32 26.37570 -79.58245 16639 ft 421 kts 41°
2026-05-04 18:32 26.39638 -79.55920 17113 ft 424 kts 42°
2026-05-04 18:32 26.41711 -79.53564 17577 ft 427 kts 42°
2026-05-04 18:33 26.43791 -79.51180 18019 ft 431 kts 43°
2026-05-04 18:33 26.45882 -79.48770 18441 ft 434 kts 43°
2026-05-04 18:33 26.47987 -79.46338 18836 ft 436 kts 43°
2026-05-04 18:33 26.50099 -79.43897 19237 ft 438 kts 43°
2026-05-04 18:34 26.51506 -79.42271 19503 ft 440 kts 43°
2026-05-04 18:34 26.53639 -79.39809 19894 ft 442 kts 42°
2026-05-04 18:34 26.55906 -79.37496 20277 ft 441 kts 33°
2026-05-04 18:34 26.59313 -79.35010 20797 ft 440 kts 26°
2026-05-04 18:35 26.61054 -79.33844 21042 ft 442 kts 26°
2026-05-04 18:35 26.63705 -79.32090 21409 ft 444 kts 26°
2026-05-04 18:35 26.66371 -79.30325 21779 ft 447 kts 26°
2026-05-04 18:35 26.69051 -79.28536 22138 ft 450 kts 26°
2026-05-04 18:36 26.71737 -79.26728 22504 ft 452 kts 27°
2026-05-04 18:36 26.74436 -79.24899 22879 ft 454 kts 27°
2026-05-04 18:36 26.77142 -79.23056 23219 ft 457 kts 27°
2026-05-04 18:36 26.79864 -79.21199 23559 ft 460 kts 27°
2026-05-04 18:37 26.82603 -79.19328 23854 ft 462 kts 27°
2026-05-04 18:37 26.85313 -79.17476 24151 ft 463 kts 27°
2026-05-04 18:37 26.88072 -79.15589 24456 ft 465 kts 26°
2026-05-04 18:37 26.90834 -79.13699 24750 ft 467 kts 26°
2026-05-04 18:38 26.93612 -79.11798 25035 ft 469 kts 26°
2026-05-04 18:38 26.96399 -79.09890 25320 ft 470 kts 26°
2026-05-04 18:38 26.99196 -79.07974 25606 ft 472 kts 26°
2026-05-04 18:38 27.02009 -79.06046 25888 ft 474 kts 26°
2026-05-04 18:39 27.04828 -79.04113 26174 ft 476 kts 26°
2026-05-04 18:39 27.07654 -79.02174 26442 ft 477 kts 26°
2026-05-04 18:39 27.10491 -79.00225 26696 ft 479 kts 25°
2026-05-04 18:39 27.13341 -78.98267 26953 ft 481 kts 25°
2026-05-04 18:40 27.16163 -78.96327 27210 ft 483 kts 25°
2026-05-04 18:40 27.19036 -78.94351 27453 ft 485 kts 25°
2026-05-04 18:40 27.21917 -78.92368 27701 ft 486 kts 25°
2026-05-04 18:40 27.24804 -78.90378 27955 ft 488 kts 25°
2026-05-04 18:41 27.27706 -78.88378 28180 ft 490 kts 25°
2026-05-04 18:41 27.30615 -78.86370 28411 ft 491 kts 25°
2026-05-04 18:41 27.33533 -78.84357 28646 ft 493 kts 25°
2026-05-04 18:41 27.36460 -78.82339 28868 ft 494 kts 24°
2026-05-04 18:42 27.39468 -78.80631 29068 ft 487 kts 15°
2026-05-04 18:42 27.42646 -78.79412 29283 ft 480 kts
2026-05-04 18:42 27.45894 -78.78739 29503 ft 472 kts 359°
2026-05-04 18:42 27.49156 -78.78282 29728 ft 473 kts 359°
2026-05-04 18:43 27.52431 -78.77848 29932 ft 474 kts 358°
2026-05-04 18:43 27.55714 -78.77410 30108 ft 476 kts 359°
2026-05-04 18:43 27.59011 -78.76959 30279 ft 478 kts 359°
2026-05-04 18:43 27.62313 -78.76493 30471 ft 479 kts 359°
2026-05-04 18:44 27.65624 -78.76016 30640 ft 480 kts 359°
2026-05-04 18:44 27.67821 -78.75696 30748 ft 481 kts 359°
2026-05-04 18:44 27.72271 -78.75042 30962 ft 483 kts 359°
2026-05-04 18:44 27.75609 -78.74550 31108 ft 484 kts 359°
2026-05-04 18:45 27.78952 -78.74057 31247 ft 485 kts 359°
2026-05-04 18:45 27.82304 -78.73562 31376 ft 486 kts 359°
2026-05-04 18:45 27.85611 -78.73075 31507 ft 487 kts 359°
2026-05-04 18:45 27.88976 -78.72579 31685 ft 487 kts 359°
2026-05-04 18:46 27.92332 -78.72082 31910 ft 486 kts 359°
2026-05-04 18:46 27.95681 -78.71587 32123 ft 485 kts 359°
2026-05-04 18:46 27.99022 -78.71093 32314 ft 484 kts 359°
2026-05-04 18:46 28.02365 -78.70600 32496 ft 484 kts 359°
2026-05-04 18:47 28.05705 -78.70107 32691 ft 484 kts 359°
2026-05-04 18:47 28.09039 -78.69614 32890 ft 483 kts 359°
2026-05-04 18:47 28.12372 -78.69121 33082 ft 483 kts 359°
2026-05-04 18:47 28.15654 -78.68635 33268 ft 482 kts 359°
2026-05-04 18:48 28.18974 -78.68144 33458 ft 481 kts 359°
2026-05-04 18:48 28.22296 -78.67651 33662 ft 481 kts 359°
2026-05-04 18:48 28.25614 -78.67159 33840 ft 480 kts 359°
2026-05-04 18:48 28.28925 -78.66668 34021 ft 480 kts 359°
2026-05-04 18:49 28.32232 -78.66177 34185 ft 479 kts 359°
2026-05-04 18:49 28.35544 -78.65685 34303 ft 480 kts 359°
2026-05-04 18:49 28.38855 -78.65194 34423 ft 480 kts 359°
2026-05-04 18:49 28.42167 -78.64702 34545 ft 480 kts 359°
2026-05-04 18:50 28.45480 -78.64209 34687 ft 480 kts 359°
2026-05-04 18:50 28.48795 -78.63715 34797 ft 481 kts 359°
2026-05-04 18:50 28.52111 -78.63221 34911 ft 481 kts 359°
2026-05-04 18:50 28.55429 -78.62726 35032 ft 481 kts 359°
2026-05-04 18:51 28.58752 -78.62231 35089 ft 483 kts 359°
2026-05-04 18:51 28.65422 -78.61235 35081 ft 482 kts 359°
2026-05-04 18:52 28.72019 -78.60246 35093 ft 481 kts 359°
2026-05-04 18:52 28.78641 -78.59253 35098 ft 480 kts 359°
2026-05-04 18:53 28.85254 -78.58263 35101 ft 479 kts 359°
2026-05-04 18:53 28.91862 -78.57271 35101 ft 479 kts 358°
2026-05-04 18:54 28.98472 -78.56278 35105 ft 479 kts 359°
2026-05-04 18:54 29.05034 -78.55291 35109 ft 479 kts 359°
2026-05-04 18:55 29.11638 -78.54295 35110 ft 479 kts 358°
2026-05-04 18:55 29.21554 -78.52799 35109 ft 479 kts 359°
2026-05-04 18:56 29.28162 -78.51799 35107 ft 479 kts 359°
2026-05-04 18:56 29.34765 -78.50799 35107 ft 479 kts 359°
2026-05-04 18:57 29.41326 -78.49805 35109 ft 479 kts 358°
2026-05-04 18:57 29.47926 -78.48849 35108 ft 475 kts 355°
2026-05-04 18:58 29.51185 -78.48832 35105 ft 463 kts 346°
2026-05-04 18:58 29.54379 -78.49165 35122 ft 461 kts 345°
2026-05-04 18:58 29.60749 -78.49944 35117 ft 460 kts 345°
2026-05-04 18:59 29.67128 -78.50695 35113 ft 461 kts 345°
2026-05-04 18:59 29.73518 -78.51400 35119 ft 462 kts 345°
2026-05-04 19:00 29.79916 -78.52091 35114 ft 462 kts 345°
2026-05-04 19:00 29.86266 -78.52778 35121 ft 462 kts 345°
2026-05-04 19:01 29.92662 -78.53473 35130 ft 462 kts 345°
2026-05-04 19:01 29.99059 -78.54170 35130 ft 462 kts 345°
2026-05-04 19:02 30.05456 -78.54868 35122 ft 462 kts 345°
2026-05-04 19:02 30.11851 -78.55566 35123 ft 462 kts 345°
2026-05-04 19:03 30.18350 -78.55566 35123 ft 477 kts 358°
2026-05-04 19:03 30.24949 -78.54537 35121 ft 479 kts 359°
2026-05-04 19:04 30.31509 -78.53512 35125 ft 478 kts 358°
2026-05-04 19:04 30.38104 -78.52559 35124 ft 478 kts 358°
2026-05-04 19:05 30.44695 -78.51597 35126 ft 478 kts 358°
2026-05-04 19:05 30.51295 -78.50533 35134 ft 479 kts 359°
2026-05-04 19:06 30.57898 -78.49454 35037 ft 481 kts 358°
2026-05-04 19:06 30.61211 -78.48919 35198 ft 480 kts 358°
2026-05-04 19:06 30.64505 -78.48386 35397 ft 478 kts 358°
2026-05-04 19:07 30.67795 -78.47852 35576 ft 476 kts 358°
2026-05-04 19:07 30.71072 -78.47320 35723 ft 476 kts 358°
2026-05-04 19:07 30.74310 -78.46795 35830 ft 476 kts 358°
2026-05-04 19:07 30.77594 -78.46263 35936 ft 477 kts 358°
2026-05-04 19:08 30.80880 -78.45729 36078 ft 476 kts 358°
2026-05-04 19:08 30.84155 -78.45195 36233 ft 475 kts 358°
2026-05-04 19:08 30.87428 -78.44661 36394 ft 474 kts 358°
2026-05-04 19:08 30.90691 -78.44128 36568 ft 473 kts 358°
2026-05-04 19:09 30.93947 -78.43595 36758 ft 472 kts 358°
2026-05-04 19:09 30.97197 -78.43064 36946 ft 470 kts 358°
2026-05-04 19:09 31.00429 -78.42535 37121 ft 470 kts 358°
2026-05-04 19:09 31.03672 -78.42007 37123 ft 470 kts 358°
2026-05-04 19:10 31.10130 -78.40949 37136 ft 467 kts 358°
2026-05-04 19:10 31.16541 -78.39897 37134 ft 464 kts 358°
2026-05-04 19:11 31.22886 -78.38856 37136 ft 462 kts 358°
2026-05-04 19:11 31.29248 -78.37811 37137 ft 461 kts 358°
2026-05-04 19:12 31.38781 -78.36244 37142 ft 462 kts 358°
2026-05-04 19:13 31.45153 -78.35194 37144 ft 463 kts 358°
2026-05-04 19:13 31.51538 -78.34140 37139 ft 464 kts 358°
2026-05-04 19:14 31.57944 -78.33081 37142 ft 466 kts 358°
2026-05-04 19:14 31.64336 -78.32022 37144 ft 467 kts 358°
2026-05-04 19:15 31.70783 -78.30953 37143 ft 469 kts 358°
2026-05-04 19:15 31.77246 -78.29879 37139 ft 469 kts 358°
2026-05-04 19:16 31.83672 -78.28809 37136 ft 470 kts 358°
2026-05-04 19:16 31.90147 -78.27730 37137 ft 470 kts 359°
2026-05-04 19:17 31.96622 -78.26649 37134 ft 470 kts 359°
2026-05-04 19:17 32.03098 -78.25570 37137 ft 469 kts 358°
2026-05-04 19:18 32.09568 -78.24599 37141 ft 468 kts 358°
2026-05-04 19:18 32.15985 -78.23689 37138 ft 468 kts 358°
2026-05-04 19:19 32.22452 -78.22764 37139 ft 468 kts 358°
2026-05-04 19:19 32.28915 -78.21824 37133 ft 468 kts 358°
2026-05-04 19:20 32.35373 -78.20879 37135 ft 468 kts 358°
2026-05-04 19:20 32.41831 -78.19932 37142 ft 467 kts 358°
2026-05-04 19:21 32.48284 -78.18985 37129 ft 467 kts 358°
2026-05-04 19:21 32.54689 -78.18044 37132 ft 467 kts 358°
2026-05-04 19:22 32.61163 -78.17091 37133 ft 467 kts 359°
2026-05-04 19:22 32.67567 -78.16148 37134 ft 467 kts 359°
2026-05-04 19:23 32.74009 -78.15197 37133 ft 467 kts 359°
2026-05-04 19:23 32.80453 -78.14245 37131 ft 467 kts 359°
2026-05-04 19:24 32.86901 -78.13291 37129 ft 467 kts 359°
2026-05-04 19:24 32.93316 -78.12340 37129 ft 467 kts 359°
2026-05-04 19:25 32.99766 -78.11383 37135 ft 467 kts 359°
2026-05-04 19:25 33.06226 -78.10422 37128 ft 468 kts 359°
2026-05-04 19:26 33.12688 -78.09461 37127 ft 468 kts 359°
2026-05-04 19:26 33.19155 -78.08496 37124 ft 469 kts 359°
2026-05-04 19:27 33.25632 -78.07529 37122 ft 469 kts 359°
2026-05-04 19:27 33.32068 -78.06566 37123 ft 469 kts 360°
2026-05-04 19:28 33.38550 -78.05596 37124 ft 470 kts 360°
2026-05-04 19:28 33.45037 -78.04623 37122 ft 470 kts 360°
2026-05-04 19:29 33.51527 -78.03647 37123 ft 470 kts 360°
2026-05-04 19:29 33.58015 -78.02671 37120 ft 470 kts 360°
2026-05-04 19:30 33.64502 -78.01694 37121 ft 470 kts 360°
2026-05-04 19:30 33.70950 -78.00721 37128 ft 470 kts 360°
2026-05-04 19:31 33.77436 -77.99740 37122 ft 470 kts 360°
2026-05-04 19:31 33.83925 -77.98758 37131 ft 470 kts
2026-05-04 19:32 33.90401 -77.97976 37140 ft 465 kts 355°
2026-05-04 19:32 33.96849 -77.97745 37123 ft 463 kts 354°
2026-05-04 19:33 34.03294 -77.97592 37138 ft 463 kts 354°
2026-05-04 19:33 34.09735 -77.97397 37109 ft 464 kts 354°
2026-05-04 19:34 34.16158 -77.97171 37102 ft 464 kts 354°
2026-05-04 19:34 34.22612 -77.96933 37110 ft 464 kts 354°
2026-05-04 19:35 34.29069 -77.96695 37105 ft 464 kts 354°
2026-05-04 19:35 34.35498 -77.96459 37104 ft 464 kts 354°
2026-05-04 19:36 34.41952 -77.96223 37099 ft 464 kts 354°
2026-05-04 19:36 34.48399 -77.95987 37098 ft 463 kts 354°
2026-05-04 19:37 34.54850 -77.95750 37078 ft 463 kts 354°
2026-05-04 19:37 34.61292 -77.95513 37079 ft 463 kts 354°
2026-05-04 19:38 34.67701 -77.95277 37081 ft 463 kts 354°
2026-05-04 19:38 34.74141 -77.95040 37077 ft 463 kts 354°
2026-05-04 19:39 34.80578 -77.94802 37074 ft 463 kts 354°
2026-05-04 19:39 34.87011 -77.94564 37075 ft 462 kts 354°
2026-05-04 19:40 34.93444 -77.94326 37065 ft 462 kts 354°
2026-05-04 19:40 34.99878 -77.94087 37071 ft 462 kts 354°
2026-05-04 19:41 35.06234 -77.93851 37067 ft 462 kts 354°
2026-05-04 19:41 35.12695 -77.93610 37069 ft 462 kts 354°
2026-05-04 19:42 35.19121 -77.93370 37061 ft 462 kts 354°
2026-05-04 19:42 35.25550 -77.93130 37061 ft 462 kts 354°
2026-05-04 19:43 35.31928 -77.92909 37058 ft 460 kts 352°
2026-05-04 19:43 35.38273 -77.93300 37067 ft 455 kts 348°
2026-05-04 19:44 35.44589 -77.93903 37061 ft 455 kts 348°
2026-05-04 19:44 35.50918 -77.94483 37060 ft 456 kts 348°
2026-05-04 19:45 35.57211 -77.95020 37058 ft 456 kts 348°
2026-05-04 19:45 35.63543 -77.95547 37057 ft 456 kts 348°
2026-05-04 19:46 35.69874 -77.96072 37046 ft 456 kts 348°
2026-05-04 19:46 35.76197 -77.96600 37049 ft 456 kts 348°
2026-05-04 19:47 35.82503 -77.97127 37047 ft 456 kts 348°
2026-05-04 19:47 35.88832 -77.97658 37050 ft 455 kts 348°
2026-05-04 19:48 35.95152 -77.98188 37047 ft 455 kts 348°
2026-05-04 19:48 36.01481 -77.98721 37050 ft 455 kts 348°
2026-05-04 19:49 36.07800 -77.99253 37042 ft 455 kts 348°
2026-05-04 19:49 36.14010 -77.99777 37031 ft 455 kts 348°
2026-05-04 19:50 36.20412 -78.00317 37026 ft 455 kts 348°
2026-05-04 19:50 36.26724 -78.00852 37026 ft 455 kts 348°
2026-05-04 19:51 36.32995 -78.01383 37023 ft 454 kts 348°
2026-05-04 19:51 36.39350 -78.01497 37017 ft 465 kts
2026-05-04 19:52 36.45757 -77.99933 37036 ft 471 kts
2026-05-04 19:52 36.52151 -77.98150 37047 ft 471 kts
2026-05-04 19:53 36.58545 -77.96413 37055 ft 470 kts
2026-05-04 19:53 36.64936 -77.94724 37062 ft 470 kts
2026-05-04 19:54 36.71286 -77.93059 37057 ft 469 kts
2026-05-04 19:54 36.77631 -77.91392 37012 ft 469 kts
2026-05-04 19:55 36.84049 -77.89702 37014 ft 468 kts
2026-05-04 19:55 36.90427 -77.88018 37007 ft 468 kts
2026-05-04 19:56 36.96811 -77.86329 37003 ft 468 kts
2026-05-04 19:56 37.03147 -77.84651 37007 ft 468 kts
2026-05-04 19:57 37.09521 -77.82959 37001 ft 469 kts
2026-05-04 19:57 37.15901 -77.81263 37009 ft 469 kts
2026-05-04 19:58 37.22282 -77.79563 37004 ft 469 kts
2026-05-04 19:58 37.28671 -77.77858 37011 ft 469 kts
2026-05-04 19:59 37.33979 -77.76440 37010 ft 469 kts
2026-05-04 19:59 37.41404 -77.74452 37008 ft 469 kts
2026-05-04 20:00 37.47788 -77.72740 37012 ft 469 kts
2026-05-04 20:00 37.54068 -77.70401 36995 ft 483 kts 25°
2026-05-04 20:01 37.58748 -77.66541 37010 ft 487 kts 28°
2026-05-04 20:01 37.65321 -77.61038 37014 ft 486 kts 28°
2026-05-04 20:02 37.70040 -77.57200 37015 ft 485 kts 27°
2026-05-04 20:02 37.75709 -77.52602 37007 ft 484 kts 28°
2026-05-04 20:03 37.81360 -77.48012 36985 ft 482 kts 28°
2026-05-04 20:03 37.86997 -77.43423 36985 ft 481 kts 28°
2026-05-04 20:04 37.92607 -77.38847 36981 ft 480 kts 28°
2026-05-04 20:04 37.98214 -77.34266 36982 ft 478 kts 28°
2026-05-04 20:05 38.03720 -77.29764 36963 ft 477 kts 28°
2026-05-04 20:05 38.09325 -77.25176 36959 ft 476 kts 28°
2026-05-04 20:06 38.14909 -77.20596 36958 ft 476 kts 28°
2026-05-04 20:06 38.20464 -77.16030 36956 ft 475 kts 28°
2026-05-04 20:07 38.26000 -77.11471 36952 ft 475 kts 28°
2026-05-04 20:07 38.31469 -77.06827 36960 ft 477 kts 31°
2026-05-04 20:08 38.36750 -77.01735 36962 ft 478 kts 33°
2026-05-04 20:08 38.42040 -76.96520 36961 ft 478 kts 33°
2026-05-04 20:09 38.47292 -76.91408 36961 ft 478 kts 32°
2026-05-04 20:09 38.52595 -76.86282 36950 ft 478 kts 32°
2026-05-04 20:10 38.57900 -76.81151 36946 ft 478 kts 32°
2026-05-04 20:10 38.63163 -76.76046 36943 ft 477 kts 33°
2026-05-04 20:11 38.68454 -76.70901 36933 ft 474 kts 33°
2026-05-04 20:11 38.73644 -76.65845 36930 ft 469 kts 33°
2026-05-04 20:12 38.78826 -76.60791 36940 ft 466 kts 33°
2026-05-04 20:12 38.81380 -76.58293 36920 ft 455 kts 33°
2026-05-04 20:12 38.83850 -76.55871 36931 ft 439 kts 32°
2026-05-04 20:12 38.86235 -76.53531 36925 ft 425 kts 32°
2026-05-04 20:13 38.88575 -76.51238 36959 ft 422 kts 32°
2026-05-04 20:13 38.93285 -76.46633 36976 ft 430 kts 32°
2026-05-04 20:14 38.98057 -76.41948 36967 ft 438 kts 33°
2026-05-04 20:14 39.02924 -76.37148 36961 ft 442 kts 34°
2026-05-04 20:15 39.07557 -76.31942 36978 ft 447 kts 38°
2026-05-04 20:15 39.12094 -76.26513 36971 ft 447 kts 38°
2026-05-04 20:16 39.16703 -76.21070 36965 ft 446 kts 38°
2026-05-04 20:16 39.21282 -76.15712 36955 ft 444 kts 38°
2026-05-04 20:17 39.25841 -76.10374 36944 ft 441 kts 38°
2026-05-04 20:17 39.30307 -76.05131 36941 ft 439 kts 38°
2026-05-04 20:18 39.34838 -75.99802 36945 ft 436 kts 38°
2026-05-04 20:18 39.39309 -75.94533 36942 ft 434 kts 38°
2026-05-04 20:19 39.43762 -75.89275 36943 ft 433 kts 38°
2026-05-04 20:19 39.48198 -75.84029 36959 ft 432 kts 38°
2026-05-04 20:20 39.52592 -75.78822 36956 ft 431 kts 38°
2026-05-04 20:20 39.57009 -75.73579 36957 ft 431 kts 38°
2026-05-04 20:21 39.61434 -75.68316 36955 ft 432 kts 38°
2026-05-04 20:21 39.68082 -75.60393 36949 ft 433 kts 38°
2026-05-04 20:22 39.72499 -75.55089 36948 ft 434 kts 38°
2026-05-04 20:22 39.76923 -75.49752 36948 ft 434 kts 38°
2026-05-04 20:23 39.81353 -75.44402 36939 ft 435 kts 38°
2026-05-04 20:23 39.85759 -75.39072 36934 ft 435 kts 38°
2026-05-04 20:24 39.90192 -75.33701 36928 ft 435 kts 38°
2026-05-04 20:24 39.94612 -75.28335 36926 ft 434 kts 38°
2026-05-04 20:25 39.98992 -75.23009 36927 ft 433 kts 38°
2026-05-04 20:25 40.03384 -75.17658 36920 ft 431 kts 38°
2026-05-04 20:26 40.07718 -75.12367 36925 ft 430 kts 38°
2026-05-04 20:26 40.12120 -75.06985 36929 ft 429 kts 38°
2026-05-04 20:27 40.16430 -75.01704 36929 ft 427 kts 38°
2026-05-04 20:27 40.20766 -74.96382 36925 ft 426 kts 38°
2026-05-04 20:28 40.25082 -74.91076 36914 ft 426 kts 38°
2026-05-04 20:28 40.29203 -74.85458 36914 ft 429 kts 43°
2026-05-04 20:29 40.33224 -74.79693 36912 ft 429 kts 42°
2026-05-04 20:29 40.37268 -74.74003 36914 ft 429 kts 42°
2026-05-04 20:30 40.41416 -74.68402 36884 ft 424 kts 31°
2026-05-04 20:30 40.43933 -74.66529 36906 ft 411 kts 14°
2026-05-04 20:30 40.46662 -74.65596 36906 ft 404 kts
2026-05-04 20:31 40.52198 -74.64253 36893 ft 405 kts
2026-05-04 20:31 40.57708 -74.62837 36882 ft 407 kts
2026-05-04 20:32 40.63224 -74.61352 36882 ft 408 kts
2026-05-04 20:32 40.68822 -74.59848 36876 ft 408 kts
2026-05-04 20:33 40.74389 -74.58351 36888 ft 408 kts
2026-05-04 20:33 40.79919 -74.56861 36899 ft 408 kts
2026-05-04 20:34 40.85488 -74.55442 36826 ft 405 kts
2026-05-04 20:34 40.90990 -74.54481 36886 ft 395 kts
2026-05-04 20:35 40.96422 -74.53689 36906 ft 397 kts
2026-05-04 20:35 41.01923 -74.52796 36896 ft 399 kts
2026-05-04 20:36 41.07453 -74.51859 36890 ft 401 kts
2026-05-04 20:36 41.13001 -74.50908 36887 ft 403 kts
2026-05-04 20:37 41.18536 -74.49957 36883 ft 403 kts